Regional Weather Roundup
Issued by NWS

Home | Current Version | Previous Version | Text Only | Print | Product List | Glossary Off
Versions: 1 2 3 4 5 6 7 8 9 10 11 12 13 14 15 16 17 18 19 20 21 22 23 24 25 26 27 28

000
ASUS45 KBOI 170510
RWRID

IDAHO REGIONAL WEATHER ROUNDUP
NATIONAL WEATHER SERVICE BOISE ID
1000 PM MST TUE JAN 16 2018

NOTE: "FAIR" INDICATES FEW OR NO CLOUDS BELOW 12000 FEET
WITH NO SIGNIFICANT WEATHER AND/OR OBSTRUCTIONS TO VISIBILITY

IDZ012-014-170600-
SOUTHWEST IDAHO


CITY           SKY/WX    TMP DP  RH WIND       PRES   REMARKS
BOISE          MOCLDY    35  34  96 SW6       30.36F WCI  30
CALDWELL       MOCLDY    34  33  96 SE3       30.39S
MOUNTAIN HOME  MOCLDY    33  33 100 CALM      30.38S
$$

IDZ016-017-170600-
SOUTHCENTRAL IDAHO


CITY           SKY/WX    TMP DP  RH WIND       PRES   REMARKS
BURLEY         CLOUDY    37  31  78 W10       30.34R WCI  30
JEROME         CLOUDY    36  31  82 W5        30.38R WCI  32
TWIN FALLS     CLOUDY    34  34 100 W7        30.38R WCI  28
$$

IDZ019>023-170600-
SOUTHEAST IDAHO


CITY           SKY/WX    TMP DP  RH WIND       PRES   REMARKS
IDAHO FALLS    CLOUDY    31  26  82 CALM      30.33S
POCATELLO      MOCLDY    32  27  81 SW5       30.34R WCI  27
REXBURG        MOCLDY    23  18  81 E5        30.32F WCI  17
$$

IDZ006-010-011-018-031-032-170600-
CENTRAL IDAHO MOUNTAINS


CITY           SKY/WX    TMP DP  RH WIND       PRES   REMARKS
MCCALL         FOG       30  29  96 E3        30.31F VSB 1
HAILEY         PTCLDY    25  21  86 NW8       30.36R WCI  16
STANLEY          N/A     17  14  88 E5        30.35R WCI  10
SALMON         CLOUDY    27  23  85 E3        30.40R
CHALLIS        CLEAR     21  16  81 S7        30.36R WCI  12
$$

IDZ002-004-006-007-026-170600-
NORTHERN IDAHO


CITY           SKY/WX    TMP DP  RH WIND       PRES   REMARKS
LEWISTON       CLEAR     38  36  92 E6        30.34F WCI  33
LOWELL           N/A     34  34 100 NW3       30.41
COEUR D`ALENE  CLEAR     33  33 100 CALM      30.32S
MULLAN PASS    CLOUDY    28  26  92 VRB3      30.25S
$$




USA.gov is the U.S. government's official web portal to all federal, state and local government web resources and services.